Location: Plymouth
(43.7570°N, 71.6890°W)
Time: 14:34:59
(UTC-04:00)

Amateur Radio Satellites - All Passes

Search period start: 30 September 2016 14:04
Search period end: 01 October 2016 14:04
Location: Plymouth, 43.7570°N, 71.6890°W

Satellite Date Start Highest point End Downlink Frequencies (MHz)
Time Altitude Azimuth
AISAT 30 Sep 14:08:03 14:10:51 17° 297° (WNW) 14:13:38 437.250
PHONESAT 2.4 30 Sep 14:12:23 14:14:32 18° 202° (SSW) 14:16:41 2401.200-2431.200
ITAMSAT 1 30 Sep 14:25:52 14:30:50 49° 70° (ENE) 14:35:50 435.822/435.867
M-CUBED/EXP-1 PRIME 30 Sep 14:30:54 14:32:38 14° 300° (WNW) 14:34:22 437.505
DX 1 30 Sep 14:33:46 14:36:15 15° 298° (WNW) 14:38:44 434.975-435.025
Gurwin Techsat 1B 30 Sep 14:47:39 14:52:23 33° 264° (W) 14:57:10 435.225
TISAT 1 30 Sep 14:48:25 14:52:24 44° 288° (WNW) 14:56:22 437.305
Cosmos 2504 30 Sep 14:51:04 14:58:30 66° 79° (E) 15:06:27 435.465 / 435.565
ITUPSAT 1 30 Sep 14:53:42 14:58:11 37° 98° (E) 15:02:37 437.325
O/OREOS (USA 219) 30 Sep 14:53:44 14:54:50 11° 46° (NE) 14:55:55 437.305
AO-7 30 Sep 14:55:53 15:04:03 64° 65° (ENE) 15:12:12 29.400- 29.500
SO-50 30 Sep 14:58:06 15:02:57 83° 123° (ESE) 15:07:44 436.795
SWISSCUBE 30 Sep 15:05:02 15:09:46 54° 101° (E) 15:14:27 437.505
Oscar 19 30 Sep 15:11:04 15:11:34 10° 273° (W) 15:12:05 437.125/150
BEESAT 30 Sep 15:17:39 15:22:26 66° 101° (ESE) 15:27:11 436.000
Cosmos 2491 30 Sep 15:45:07 15:53:42 55° 284° (WNW) 16:02:23 435.465 / 435.565
YUBILEINY 30 Sep 15:48:37 15:55:25 27° 279° (W) 16:02:13 435.215
AIST 1 30 Sep 15:53:19 15:57:32 52° 79° (ENE) 16:01:41
ITAMSAT 1 30 Sep 16:06:38 16:10:34 22° 267° (W) 16:14:31 435.822/435.867
MOZHAYETS 4 30 Sep 16:18:10 16:22:43 51° 99° (E) 16:27:15
BRITE-PL 30 Sep 16:20:56 16:25:21 24° 64° (ENE) 16:29:39 437.365/2234.400
KKS-1 30 Sep 16:22:29 16:26:32 33° 97° (E) 16:30:32 437.445
NOAA 15 30 Sep 16:23:40 16:25:57 13° 56° (NE) 16:28:14 137.62
O/OREOS (USA 219) 30 Sep 16:30:29 16:35:07 73° 66° (ENE) 16:39:41 437.305
ITUPSAT 1 30 Sep 16:31:51 16:35:51 26° 295° (WNW) 16:39:50 437.325
SO-50 30 Sep 16:40:37 16:44:01 19° 323° (NW) 16:47:23 436.795
HORYU 2 30 Sep 16:41:32 16:45:48 50° 72° (ENE) 16:50:05 437.375
SWISSCUBE 30 Sep 16:43:48 16:47:08 19° 298° (WNW) 16:50:28 437.505
Cosmos 2504 30 Sep 16:45:31 16:51:17 25° 277° (W) 16:57:20 435.465 / 435.565
STARS 30 Sep 16:48:04 16:51:56 30° 97° (E) 16:55:48 437.465
CUTE-I 30 Sep 16:48:23 16:51:45 17° 59° (ENE) 16:55:07 437.470
Cubesat XI-IV 30 Sep 16:49:10 16:52:34 17° 59° (ENE) 16:55:57 437.490
AO-7 30 Sep 16:50:12 16:57:17 31° 265° (W) 17:04:24 29.400- 29.500
BEESAT 30 Sep 16:56:46 16:59:41 16° 299° (WNW) 17:02:35 436.000
GOMX 1 30 Sep 17:32:25 17:37:27 44° 71° (ENE) 17:42:13 467.674
AIST 1 30 Sep 17:32:31 17:34:37 13° 276° (W) 17:36:43
LilacSat-2 30 Sep 17:34:17 17:37:37 30° 70° (ENE) 17:40:58 437.200
DOVE 4 30 Sep 17:40:02 17:43:48 23° 66° (ENE) 17:47:25 437.250
CUSAT 1 30 Sep 17:41:25 17:46:28 23° 80° (E) 17:52:05 437.405
CUBESAT XI-V 30 Sep 17:45:57 17:50:35 56° 100° (E) 17:55:09 437.345
Cosmos 2491 30 Sep 17:50:08 17:52:58 12° 309° (NW) 17:55:49 435.465 / 435.565
NOAA 18 30 Sep 17:52:27 17:57:42 50° 69° (ENE) 18:02:56 137.9125
Cosmos 2499 30 Sep 17:54:11 17:58:26 15° 60° (ENE) 18:02:47 435.465 / 435.565
MOZHAYETS 4 30 Sep 17:56:16 17:59:30 19° 297° (WNW) 18:02:43
BRITE-PL 30 Sep 17:57:52 18:03:27 55° 261° (W) 18:08:52 437.365/2234.400
KKS-1 30 Sep 17:59:20 18:02:56 25° 294° (WNW) 18:06:32 437.445
NOAA 15 30 Sep 17:59:34 18:04:53 82° 74° (ENE) 18:10:14 137.62
DANDE 30 Sep 18:03:41 18:04:20 10° 72° (ENE) 18:05:01 436.750
O/OREOS (USA 219) 30 Sep 18:12:08 18:13:50 12° 263° (W) 18:15:34 437.305
GONETS M04 30 Sep 18:14:00 18:21:11 27° 64° (ENE) 18:28:17
HORYU 2 30 Sep 18:19:54 18:22:39 16° 268° (W) 18:25:24 437.375
STARS 30 Sep 18:24:32 18:28:12 27° 293° (WNW) 18:31:51 437.465
RS-15 30 Sep 18:25:47 18:35:28 33° 103° (ESE) 18:45:30 29.354- 29.394
CUTE-I 30 Sep 18:25:54 18:31:12 73° 258° (WSW) 18:36:32 437.470
Cubesat XI-IV 30 Sep 18:26:45 18:32:02 72° 257° (WSW) 18:37:23 437.490
CINEMA 3 30 Sep 18:30:44 18:33:42 18° 65° (ENE) 18:36:36 145.822/145.860
HO-68 30 Sep 18:33:53 18:40:03 32° 60° (ENE) 18:46:12 435.675
COMPASS 1 30 Sep 18:54:30 18:55:41 11° 60° (ENE) 18:56:51 437.405
ISS 30 Sep 18:59:29 19:02:13 25° 137° (SE) 19:04:57 145.825
AO-85 30 Sep 19:03:00 19:04:10 11° 107° (ESE) 19:05:20 145.980
LilacSat-2 30 Sep 19:09:14 19:11:58 19° 267° (W) 19:14:43 437.200
GOMX 1 30 Sep 19:11:17 19:15:38 25° 266° (W) 19:19:49 467.674
DOVE 4 30 Sep 19:16:34 19:21:16 43° 261° (W) 19:25:44 437.250
CUBEBUG 2 30 Sep 19:18:10 19:20:34 15° 64° (ENE) 19:22:59 437.445
CUSAT 1 30 Sep 19:20:52 19:27:29 75° 282° (WNW) 19:35:23 437.405
CUBESAT XI-V 30 Sep 19:24:27 19:27:31 17° 297° (WNW) 19:30:33 437.345
SEEDS 30 Sep 19:25:54 19:29:40 33° 70° (ENE) 19:33:28 437.485
CUTE 1.7 + AOD 2 30 Sep 19:29:49 19:33:55 51° 73° (ENE) 19:38:05 437.475
UWE-3 30 Sep 19:30:07 19:32:10 14° 62° (ENE) 19:34:13 435.000/436.395/437.385
CANX-2 30 Sep 19:31:37 19:35:49 63° 74° (ENE) 19:40:02 2200.000
NOAA 18 30 Sep 19:34:17 19:38:36 24° 266° (W) 19:42:56 137.9125
DANDE 30 Sep 19:39:42 19:45:10 68° 95° (E) 19:52:22 436.750
AAUSAT CUBESAT 2 30 Sep 19:39:50 19:43:17 25° 68° (ENE) 19:46:44 437.432
NOAA 15 30 Sep 19:42:51 19:45:18 13° 271° (W) 19:47:46 137.62
Oscar 11 30 Sep 19:44:35 19:46:33 13° 61° (ENE) 19:48:31 145.826/435.025
Cosmos 2499 30 Sep 19:45:10 19:52:48 76° 80° (E) 20:01:03 435.465 / 435.565
ZACube-1 30 Sep 19:52:06 19:54:25 15° 63° (ENE) 19:56:46 437.345
STRAND 1 30 Sep 20:02:22 20:07:30 63° 101° (E) 20:12:36 437.568
CINEMA 3 30 Sep 20:06:19 20:10:33 45° 261° (W) 20:14:40 145.822/145.860
GONETS M04 30 Sep 20:10:06 20:18:53 73° 266° (W) 20:27:33
HO-68 30 Sep 20:20:26 20:27:25 55° 259° (WSW) 20:34:27 435.675
COMPASS 1 30 Sep 20:26:25 20:30:35 78° 257° (WSW) 20:34:49 437.405
DELFI C3 30 Sep 20:34:08 20:36:37 16° 64° (ENE) 20:39:05 145.870
RS-15 30 Sep 20:35:03 20:46:45 78° 307° (NW) 20:59:06 29.354- 29.394
ISS 30 Sep 20:35:23 20:38:33 47° 334° (NNW) 20:41:44 145.825
AO-85 30 Sep 20:38:46 20:43:57 78° 123° (ESE) 20:48:49 145.980
FUNcube-1 30 Sep 20:42:26 20:46:22 45° 72° (ENE) 20:50:21 145.935
CUBEBUG 2 30 Sep 20:52:45 20:56:49 51° 260° (W) 21:00:52 437.445
PRISM 30 Sep 20:59:59 21:03:15 22° 94° (E) 21:06:30 437.425
SEEDS 30 Sep 21:02:04 21:05:25 23° 266° (W) 21:08:47 437.485
UWE-3 30 Sep 21:04:04 21:08:10 58° 260° (W) 21:12:16 435.000/436.395/437.385
CUSAT 1 30 Sep 21:06:34 21:11:04 17° 305° (NW) 21:15:53 437.405
CUTE 1.7 + AOD 2 30 Sep 21:07:41 21:10:04 15° 270° (W) 21:12:30 437.475
CANX-2 30 Sep 21:10:22 21:12:05 12° 271° (W) 21:13:48 2200.000
AAUSAT CUBESAT 2 30 Sep 21:15:01 21:18:39 29° 265° (W) 21:22:19 437.432
Oscar 11 30 Sep 21:17:50 21:22:07 69° 258° (WSW) 21:26:27 145.826/435.025
HUMSAT D 30 Sep 21:19:18 21:22:39 25° 67° (ENE) 21:26:03 437.325/437.525
DANDE 30 Sep 21:24:12 21:28:53 23° 301° (WNW) 21:34:29 436.750
ZACube-1 30 Sep 21:26:15 21:30:17 52° 260° (W) 21:34:22 437.345
Cosmos 2499 30 Sep 21:39:40 21:45:11 22° 279° (W) 21:50:56 435.465 / 435.565
STRAND 1 30 Sep 21:42:41 21:46:11 19° 299° (WNW) 21:49:41 437.568
SO-50 30 Sep 21:48:54 21:52:07 18° 37° (NE) 21:55:17 436.795
DELFI C3 30 Sep 22:07:13 22:11:04 46° 261° (W) 22:14:58 145.870
GONETS M04 30 Sep 22:09:55 22:14:00 14° 287° (WNW) 22:18:03
ISS 30 Sep 22:13:01 22:15:35 21° 354° (N) 22:18:09 145.825
FUNcube-1 30 Sep 22:20:24 22:22:53 15° 269° (W) 22:25:24 145.935
AO-85 30 Sep 22:21:13 22:24:54 20° 320° (NW) 22:28:26 145.980
UNISAT 6 30 Sep 22:23:43 22:27:31 27° 95° (E) 22:31:22 437.425
CUBEBUG 1 30 Sep 22:32:57 22:35:59 18° 64° (ENE) 22:39:01 437.445
PRISM 30 Sep 22:34:55 22:38:36 32° 291° (WNW) 22:42:15 437.425
VELOX 1 30 Sep 22:37:35 22:40:22 17° 62° (ENE) 22:43:09 145.980
50 SAT 30 Sep 22:40:37 22:42:14 13° 63° (ENE) 22:43:52 437.505
ESTCUBE 1 30 Sep 22:50:30 22:54:45 41° 70° (ENE) 22:59:03 437.505/2401.250
RS-15 30 Sep 22:51:03 23:01:35 34° 336° (NNW) 23:12:30 29.354- 29.394
HUMSAT D 30 Sep 22:54:38 22:58:11 28° 265° (W) 23:01:47 437.325/437.525
ANTELSAT 30 Sep 22:58:32 23:02:58 63° 101° (E) 23:07:27 437.575/2403.000
SPROUT 30 Sep 22:59:06 23:01:24 14° 62° (ENE) 23:03:42 437.525
AUBIESAT-1 30 Sep 23:03:15 23:06:04 20° 62° (ENE) 23:08:46 437.475
POPSAT HIP 1 30 Sep 23:13:30 23:14:50 11° 89° (E) 23:16:10 437.405
TIGRISAT 30 Sep 23:18:08 23:22:34 86° 286° (WNW) 23:27:06 435.000
UKube-1 30 Sep 23:18:50 23:22:05 21° 65° (ENE) 23:25:20 .
NANOSAT C BR1 30 Sep 23:26:27 23:28:58 15° 92° (E) 23:31:28 145.865
SO-50 30 Sep 23:28:34 23:33:10 79° 237° (WSW) 23:37:38 436.795
AISAT 30 Sep 23:28:44 23:33:04 55° 72° (ENE) 23:37:24 437.250
M-CUBED/EXP-1 PRIME 30 Sep 23:42:16 23:46:16 68° 69° (ENE) 23:49:58 437.505
JAS-2 30 Sep 23:47:50 23:54:48 34° 92° (E) 00:01:22 435.910
BEESAT 2 30 Sep 23:48:28 23:50:39 15° 110° (ESE) 23:52:52 435.950
ISS 30 Sep 23:50:00 23:52:49 25° 15° (NNE) 23:55:37 145.825
QB50P2 30 Sep 23:52:04 23:55:54 33° 97° (E) 23:59:43 145.880/145.840
DX 1 30 Sep 23:52:38 23:56:56 59° 73° (ENE) 00:01:15 434.975-435.025
POLYITAN 1 30 Sep 23:54:14 23:58:03 33° 97° (E) 00:01:53 437.675
Cosmos 2491 30 Sep 23:58:14 00:04:04 19° 58° (ENE) 00:09:50 435.465 / 435.565
UNISAT 6 01 Oct 00:00:20 00:04:13 31° 291° (WNW) 00:08:10 437.425
TISAT 1 01 Oct 00:07:10 00:09:41 16° 63° (ENE) 00:12:12 437.305
CUBEBUG 1 01 Oct 00:07:40 00:11:55 47° 260° (W) 00:16:12 437.445
50 SAT 01 Oct 00:11:47 00:15:18 49° 260° (W) 00:18:53 437.505
VELOX 1 01 Oct 00:12:01 00:16:24 55° 259° (W) 00:20:46 145.980
BUGSAT 1 01 Oct 00:16:30 00:19:29 20° 94° (E) 00:22:28 437.445
BEESAT 3 01 Oct 00:21:35 00:25:27 66° 121° (ESE) 00:29:22 437.485
DUCHIFAT 1 01 Oct 00:27:05 00:31:17 66° 102° (ESE) 00:35:26 145.980
ESTCUBE 1 01 Oct 00:28:20 00:31:44 21° 267° (W) 00:35:09 437.505/2401.250
SPROUT 01 Oct 00:32:39 00:36:52 59° 259° (W) 00:41:05 437.525
QB50P1 01 Oct 00:32:57 00:37:11 88° 107° (ESE) 00:41:25 145.935-145.965
ANTELSAT 01 Oct 00:36:43 00:39:12 15° 298° (WNW) 00:41:43 437.575/2403.000
AUBIESAT-1 01 Oct 00:36:45 00:40:22 34° 256° (WSW) 00:43:46 437.475
POPSAT HIP 1 01 Oct 00:46:52 00:51:03 66° 286° (WNW) 00:55:14 437.405
BEESAT 01 Oct 00:51:18 00:52:50 11° 57° (ENE) 00:54:23 436.000
UKube-1 01 Oct 00:53:49 00:57:53 39° 262° (W) 01:01:56 .
TIGRISAT 01 Oct 00:58:16 00:58:34 10° 301° (WNW) 00:58:52 435.000
NANOSAT C BR1 01 Oct 01:00:54 01:04:57 48° 288° (WNW) 01:09:01 145.865
YUBILEINY 01 Oct 01:01:45 01:06:10 15° 74° (ENE) 01:10:34 435.215
AISAT 01 Oct 01:07:16 01:09:52 15° 269° (W) 01:12:28 437.250
RS-15 01 Oct 01:08:56 01:19:07 29° 11° (N) 01:29:21 29.354- 29.394
BEESAT 2 01 Oct 01:24:09 01:28:02 55° 308° (NW) 01:31:58 435.950
Gurwin Techsat 1B 01 Oct 01:24:40 01:26:20 11° 87° (E) 01:28:01 435.225
ISS 01 Oct 01:26:18 01:29:36 84° 212° (SSW) 01:32:53 145.825
QB50P2 01 Oct 01:28:11 01:31:32 23° 294° (WNW) 01:34:54 145.880/145.840
POLYITAN 1 01 Oct 01:30:21 01:33:42 23° 294° (WNW) 01:37:04 437.675
DX 1 01 Oct 01:31:18 01:33:30 14° 269° (W) 01:35:43 434.975-435.025
JAS-2 01 Oct 01:32:25 01:40:04 56° 292° (WNW) 01:47:19 435.910
Oscar 19 01 Oct 01:36:54 01:41:27 31° 96° (E) 01:45:58 437.125/150
TISAT 1 01 Oct 01:40:51 01:44:55 51° 260° (W) 01:49:01 437.305
BUGSAT 1 01 Oct 01:51:18 01:54:57 34° 290° (WNW) 01:58:37 437.445
Cosmos 2491 01 Oct 01:53:33 02:02:28 81° 81° (E) 02:11:17 435.465 / 435.565
BEESAT 3 01 Oct 02:00:59 02:03:31 16° 321° (NW) 02:06:05 437.485
ITUPSAT 1 01 Oct 02:01:31 02:06:06 50° 71° (ENE) 02:10:45 437.325
DUCHIFAT 1 01 Oct 02:04:33 02:06:26 13° 299° (WNW) 02:08:17 145.980
SWISSCUBE 01 Oct 02:12:31 02:17:16 73° 74° (ENE) 02:22:03 437.505
BEESAT 01 Oct 02:25:06 02:29:51 86° 75° (ENE) 02:34:40 436.000
PCSat 01 Oct 02:33:50 02:36:28 14° 103° (ESE) 02:39:07 145.827
AIST 2 01 Oct 02:38:22 02:42:02 32° 116° (ESE) 02:45:45 435.215
ITAMSAT 1 01 Oct 02:38:35 02:41:40 16° 90° (E) 02:44:43 435.822/435.867
YUBILEINY 01 Oct 02:52:38 03:01:23 76° 94° (E) 03:10:07 435.215
AO-7 01 Oct 02:57:44 03:02:47 17° 89° (E) 03:07:48 29.400- 29.500
Gurwin Techsat 1B 01 Oct 03:01:40 03:07:01 88° 101° (E) 03:12:22 435.225
ISS 01 Oct 03:04:31 03:05:35 11° 230° (SW) 03:06:41 145.825
Oscar 19 01 Oct 03:16:09 03:20:46 34° 293° (WNW) 03:25:22 437.125/150
JAS-2 01 Oct 03:19:52 03:23:23 14° 312° (NW) 03:26:51 435.910
MOZHAYETS 4 01 Oct 03:21:03 03:25:30 55° 73° (ENE) 03:30:02
KKS-1 01 Oct 03:21:37 03:25:42 37° 69° (ENE) 03:29:47 437.445
RS-15 01 Oct 03:23:13 03:35:20 54° 43° (NE) 03:47:13 29.354- 29.394
AO-85 01 Oct 03:30:32 03:32:54 14° 35° (NE) 03:35:12 145.980
Cosmos 2504 01 Oct 03:31:27 03:38:29 52° 91° (E) 03:45:22 435.465 / 435.565
ITUPSAT 1 01 Oct 03:40:53 03:44:13 19° 268° (W) 03:47:35 437.325
STARS 01 Oct 03:45:50 03:49:43 32° 68° (ENE) 03:53:38 437.465
Cosmos 2491 01 Oct 03:51:56 03:58:12 22° 282° (WNW) 04:04:28 435.465 / 435.565
SWISSCUBE 01 Oct 03:53:27 03:55:34 13° 271° (W) 03:57:42 437.505
BEESAT 01 Oct 04:07:27 04:08:17 10° 272° (W) 04:09:07 436.000
PCSat 01 Oct 04:13:40 04:19:05 86° 303° (WNW) 04:24:33 145.827
CUSAT 1 01 Oct 04:13:45 04:19:05 20° 57° (ENE) 04:23:51 437.405
ITAMSAT 1 01 Oct 04:16:25 04:21:38 70° 287° (WNW) 04:26:49 435.822/435.867
AIST 2 01 Oct 04:16:56 04:20:31 28° 314° (NW) 04:24:10 435.215
AIST 1 01 Oct 04:24:04 04:27:51 29° 90° (E) 04:31:38
DANDE 01 Oct 04:35:17 04:40:11 16° 54° (NE) 04:44:55 436.750
Gurwin Techsat 1B 01 Oct 04:43:30 04:46:13 14° 303° (WNW) 04:48:57 435.225
AO-7 01 Oct 04:48:22 04:56:43 83° 107° (ESE) 05:05:02 29.400- 29.500
CUBESAT XI-V 01 Oct 04:50:06 04:54:44 63° 73° (ENE) 04:59:25 437.345
YUBILEINY 01 Oct 04:52:10 04:59:06 26° 296° (WNW) 05:06:05 435.215
KKS-1 01 Oct 04:58:52 05:02:21 22° 266° (W) 05:05:51 437.445
MOZHAYETS 4 01 Oct 05:00:16 05:03:02 16° 270° (W) 05:05:48
AO-85 01 Oct 05:09:50 05:14:02 89° 232° (SW) 05:17:56 145.980
STARS 01 Oct 05:22:30 05:26:06 25° 265° (W) 05:29:43 437.465
Cosmos 2504 01 Oct 05:25:56 05:32:10 30° 291° (WNW) 05:38:19 435.465 / 435.565
RS-15 01 Oct 05:36:10 05:48:03 56° 247° (WSW) 05:59:38 29.354- 29.394
STRAND 1 01 Oct 05:43:22 05:46:07 15° 58° (ENE) 05:48:52 437.568
CUSAT 1 01 Oct 05:54:41 06:02:22 89° 253° (WSW) 06:08:34 437.405
ITAMSAT 1 01 Oct 05:59:08 06:00:08 11° 306° (NW) 06:01:09 435.822/435.867
PCSat 01 Oct 05:59:38 06:03:18 18° 321° (NW) 06:06:58 145.827
AIST 1 01 Oct 06:01:48 06:05:26 25° 287° (WNW) 06:09:04
BRITE-PL 01 Oct 06:02:12 06:06:44 45° 97° (E) 06:10:56 437.365/2234.400
HORYU 2 01 Oct 06:07:13 06:11:42 85° 105° (ESE) 06:16:10 437.375
NOAA 15 01 Oct 06:13:54 06:18:25 28° 95° (E) 06:22:52 137.62
NOAA 18 01 Oct 06:14:01 06:17:43 18° 92° (E) 06:21:25 137.9125
DANDE 01 Oct 06:16:20 06:24:44 66° 76° (ENE) 06:32:19 436.750
CUBESAT XI-V 01 Oct 06:29:58 06:32:33 14° 271° (W) 06:35:08 437.345
LilacSat-2 01 Oct 06:39:58 06:43:36 38° 98° (E) 06:47:13 437.200
CUTE-I 01 Oct 06:41:39 06:46:43 41° 98° (E) 06:51:45 437.470
AO-7 01 Oct 06:42:13 06:48:37 26° 308° (NW) 06:55:02 29.400- 29.500
Cubesat XI-IV 01 Oct 06:42:41 06:47:45 41° 98° (E) 06:52:47 437.490
O/OREOS (USA 219) 01 Oct 06:43:47 06:48:17 67° 111° (ESE) 06:52:52 437.305
BEESAT 3 01 Oct 07:02:18 07:02:52 10° 33° (NNE) 07:03:28 437.485
GOMX 1 01 Oct 07:11:04 07:15:27 83° 284° (WNW) 07:19:37 467.674
DOVE 4 01 Oct 07:14:02 07:18:01 42° 98° (E) 07:21:57 437.250
GONETS M04 01 Oct 07:17:39 07:24:45 28° 81° (E) 07:31:52
CANX-2 01 Oct 07:18:41 07:18:51 10° 88° (E) 07:19:02 2200.000
STRAND 1 01 Oct 07:19:30 07:24:36 81° 255° (WSW) 07:29:46 437.568
CUSAT 1 01 Oct 07:38:42 07:42:59 17° 283° (WNW) 07:46:51 437.405
BRITE-PL 01 Oct 07:41:27 07:44:51 20° 297° (WNW) 07:48:06 437.365/2234.400
HORYU 2 01 Oct 07:46:08 07:47:35 11° 301° (WNW) 07:49:02 437.375
HO-68 01 Oct 07:46:59 07:52:58 28° 94° (E) 07:58:53 435.675
PRISM 01 Oct 07:50:45 07:53:52 21° 65° (ENE) 07:57:00 437.425
NOAA 15 01 Oct 07:53:21 07:58:18 40° 292° (WNW) 08:03:12 137.62
NOAA 18 01 Oct 07:53:24 07:58:49 64° 289° (WNW) 08:04:14 137.9125
RS-15 01 Oct 07:54:46 07:57:28 11° 269° (W) 08:00:10 29.354- 29.394
CINEMA 3 01 Oct 07:59:13 08:03:03 34° 97° (E) 08:06:59 145.822/145.860
DANDE 01 Oct 07:59:55 08:06:53 30° 276° (W) 08:13:19 436.750
BEESAT 2 01 Oct 08:03:48 08:06:34 18° 40° (NE) 08:09:21 435.950
COMPASS 1 01 Oct 08:09:07 08:11:40 15° 91° (E) 08:14:10 437.405
LilacSat-2 01 Oct 08:15:06 08:17:37 17° 294° (WNW) 08:20:07 437.200
CUTE-I 01 Oct 08:22:02 08:26:35 29° 295° (WNW) 08:31:07 437.470
Cubesat XI-IV 01 Oct 08:23:06 08:27:39 29° 295° (WNW) 08:32:09 437.490
Cosmos 2499 01 Oct 08:23:53 08:30:47 58° 92° (E) 08:37:41 435.465 / 435.565
O/OREOS (USA 219) 01 Oct 08:25:19 08:28:12 16° 309° (NW) 08:31:06 437.305
BEESAT 3 01 Oct 08:37:25 08:41:22 58° 53° (NE) 08:45:18 437.485
CUBEBUG 2 01 Oct 08:41:55 08:45:40 28° 96° (E) 08:49:29 437.445
SEEDS 01 Oct 08:43:27 08:47:39 53° 100° (E) 08:51:48 437.485
TIGRISAT 01 Oct 08:45:44 08:46:14 10° 59° (ENE) 08:46:43 435.000
CUTE 1.7 + AOD 2 01 Oct 08:48:52 08:53:12 88° 103° (ESE) 08:57:30 437.475
CANX-2 01 Oct 08:50:55 08:55:15 77° 284° (WNW) 08:59:32 2200.000
UWE-3 01 Oct 08:52:17 08:55:52 24° 95° (E) 08:59:30 435.000/436.395/437.385
DOVE 4 01 Oct 08:52:39 08:55:25 17° 296° (WNW) 08:58:10 437.250
AAUSAT CUBESAT 2 01 Oct 08:55:21 08:59:17 38° 97° (E) 09:03:11 437.432
Oscar 11 01 Oct 09:04:25 09:07:38 20° 93° (E) 09:10:50 145.826/435.025
GONETS M04 01 Oct 09:12:03 09:20:50 67° 282° (WNW) 09:29:41
ZACube-1 01 Oct 09:13:07 09:16:47 26° 95° (E) 09:20:30 437.345
UNISAT 6 01 Oct 09:24:06 09:27:41 27° 68° (ENE) 09:31:17 437.425
PRISM 01 Oct 09:25:04 09:28:56 37° 262° (W) 09:32:51 437.425
HO-68 01 Oct 09:34:04 09:41:05 60° 292° (WNW) 09:48:03 435.675
CINEMA 3 01 Oct 09:36:48 09:40:03 22° 293° (WNW) 09:43:20 145.822/145.860
NOAA 18 01 Oct 09:37:36 09:38:26 10° 307° (NW) 09:39:16 137.9125
BEESAT 2 01 Oct 09:40:47 09:44:46 61° 239° (WSW) 09:48:43 435.950
COMPASS 1 01 Oct 09:43:24 09:47:29 48° 287° (WNW) 09:51:31 437.405
DELFI C3 01 Oct 09:43:53 09:46:53 20° 93° (E) 09:49:50 145.870
PHONESAT 2.4 01 Oct 09:49:04 09:51:30 24° 162° (SSE) 09:53:58 2401.200-2431.200
ANTELSAT 01 Oct 09:58:36 10:02:47 62° 74° (ENE) 10:07:01 437.575/2403.000
JAS-2 01 Oct 10:02:43 10:07:17 19° 52° (NE) 10:12:06 435.910
FUNcube-1 01 Oct 10:04:31 10:08:55 85° 106° (ESE) 10:13:22 145.935
POPSAT HIP 1 01 Oct 10:07:58 10:09:12 11° 60° (ENE) 10:10:27 437.405
BEESAT 3 01 Oct 10:16:31 10:18:34 14° 250° (WSW) 10:20:37 437.485
TIGRISAT 01 Oct 10:17:59 10:22:14 85° 256° (WSW) 10:26:31 435.000
CUBEBUG 2 01 Oct 10:18:32 10:22:14 28° 291° (WNW) 10:26:01 437.445
Cosmos 2499 01 Oct 10:18:36 10:24:21 26° 293° (WNW) 10:30:10 435.465 / 435.565
SEEDS 01 Oct 10:20:22 10:22:55 16° 297° (WNW) 10:25:28 437.485
NANOSAT C BR1 01 Oct 10:20:23 10:22:41 15° 62° (ENE) 10:24:59 145.865
CUTE 1.7 + AOD 2 01 Oct 10:27:46 10:28:21 10° 300° (WNW) 10:28:55 437.475
UWE-3 01 Oct 10:28:27 10:32:21 33° 290° (WNW) 10:36:20 435.000/436.395/437.385
AAUSAT CUBESAT 2 01 Oct 10:31:25 10:34:30 20° 294° (WNW) 10:37:35 437.432
HUMSAT D 01 Oct 10:35:53 10:39:54 39° 98° (E) 10:43:55 437.325/437.525
Oscar 11 01 Oct 10:39:50 10:43:54 40° 290° (WNW) 10:47:58 145.826/435.025
QB50P2 01 Oct 10:45:57 10:49:36 29° 68° (ENE) 10:53:15 145.880/145.840
POLYITAN 1 01 Oct 10:48:08 10:51:46 29° 68° (ENE) 10:55:24 437.675
ZACube-1 01 Oct 10:49:13 10:53:04 31° 291° (WNW) 10:56:59 437.345
AIST 2 01 Oct 10:58:04 11:01:57 35° 48° (NE) 11:05:49 435.215
UNISAT 6 01 Oct 11:00:41 11:04:21 28° 265° (W) 11:08:02 437.425
BUGSAT 1 01 Oct 11:07:54 11:10:37 18° 65° (ENE) 11:13:21 437.445
GONETS M04 01 Oct 11:15:05 11:19:39 15° 305° (NW) 11:24:16
PCSat 01 Oct 11:17:44 11:21:41 20° 40° (NE) 11:25:37 145.827
DELFI C3 01 Oct 11:18:09 11:21:48 33° 290° (WNW) 11:25:24 145.870
DUCHIFAT 1 01 Oct 11:19:54 11:23:59 56° 73° (ENE) 11:28:04 145.980
HO-68 01 Oct 11:24:21 11:27:22 13° 313° (NW) 11:30:23 435.675
PHONESAT 2.4 01 Oct 11:24:28 11:27:16 43° 178° (S) 11:30:05 2401.200-2431.200
QB50P1 01 Oct 11:26:15 11:30:27 76° 75° (ENE) 11:34:39 145.935-145.965
ANTELSAT 01 Oct 11:38:16 11:39:57 12° 271° (W) 11:41:37 437.575/2403.000
50 SAT 01 Oct 11:39:53 11:41:08 11° 90° (E) 11:42:22 437.505
POPSAT HIP 1 01 Oct 11:40:11 11:44:23 77° 259° (W) 11:48:35 437.405
FUNcube-1 01 Oct 11:43:20 11:44:31 11° 300° (WNW) 11:45:42 145.935
JAS-2 01 Oct 11:44:21 11:51:03 82° 74° (ENE) 11:58:36 435.910
NANOSAT C BR1 01 Oct 11:53:51 11:57:58 56° 260° (W) 12:02:06 145.865
CUBEBUG 1 01 Oct 11:55:06 11:58:49 27° 95° (E) 12:02:30 437.445
VELOX 1 01 Oct 12:01:11 12:04:47 24° 94° (E) 12:08:21 145.980
HUMSAT D 01 Oct 12:12:05 12:15:16 21° 294° (WNW) 12:18:26 437.325/437.525
SPROUT 01 Oct 12:17:47 12:21:00 21° 93° (E) 12:24:12 437.525
ESTCUBE 1 01 Oct 12:17:58 12:22:32 76° 104° (ESE) 12:27:02 437.505/2401.250
QB50P2 01 Oct 12:21:54 12:25:23 25° 265° (W) 12:28:53 145.880/145.840
POLYITAN 1 01 Oct 12:24:04 12:27:33 25° 265° (W) 12:31:02 437.675
AIST 2 01 Oct 12:36:47 12:40:19 26° 246° (WSW) 12:43:50 435.215
UKube-1 01 Oct 12:39:30 12:43:17 29° 96° (E) 12:47:02 .
BUGSAT 1 01 Oct 12:41:50 12:45:42 41° 261° (W) 12:49:34 437.445
Gurwin Techsat 1B 01 Oct 12:45:50 12:49:54 23° 62° (ENE) 12:53:59 435.225
AISAT 01 Oct 12:53:43 12:58:08 88° 281° (WNW) 13:02:31 437.250
M-CUBED/EXP-1 PRIME 01 Oct 12:54:28 12:57:27 32° 104° (ESE) 13:00:27 437.505
Oscar 19 01 Oct 12:54:44 12:59:46 52° 71° (ENE) 13:04:49 437.125/150
DUCHIFAT 1 01 Oct 12:58:01 13:00:01 13° 270° (W) 13:02:01 145.980
PCSat 01 Oct 13:00:19 13:05:46 83° 241° (WSW) 13:11:11 145.827
PHONESAT 2.4 01 Oct 13:00:28 13:03:04 28° 195° (SSW) 13:05:40 2401.200-2431.200
YUBILEINY 01 Oct 13:01:26 13:09:31 40° 71° (ENE) 13:17:33 435.215
Cosmos 2491 01 Oct 13:03:23 13:08:58 19° 76° (ENE) 13:14:32 435.465 / 435.565
50 SAT 01 Oct 13:11:22 13:14:55 49° 287° (WNW) 13:18:26 437.505
DX 1 01 Oct 13:15:25 13:19:47 87° 285° (WNW) 13:24:07 434.975-435.025
Cosmos 2504 01 Oct 13:21:51 13:27:11 20° 64° (ENE) 13:32:41 435.465 / 435.565
TISAT 1 01 Oct 13:23:51 13:27:03 21° 94° (E) 13:30:13 437.305
CUBEBUG 1 01 Oct 13:31:20 13:35:04 29° 292° (WNW) 13:38:46 437.445
JAS-2 01 Oct 13:32:22 13:37:03 19° 275° (W) 13:42:05 435.910
VELOX 1 01 Oct 13:37:20 13:41:17 33° 292° (WNW) 13:45:12 145.980
SO-50 01 Oct 13:44:15 13:48:13 25° 113° (ESE) 13:52:07 436.795
AUBIESAT-1 01 Oct 13:47:46 13:51:01 57° 291° (WNW) 13:54:19 437.475
SPROUT 01 Oct 13:53:08 13:57:03 36° 290° (WNW) 14:00:57 437.525
ESTCUBE 1 01 Oct 13:56:41 13:58:42 13° 300° (WNW) 14:00:43 437.505/2401.250
